Simultaneous Nadir Overpasses (SNOs) Predictions

Prediction of SNOs between GOES-17 and TERRA Satellite Orbit:

Table of predicted SNOs for the next 14.0 days since TLE Epoch: 2/8/2020
Index Date Time (GOES-17) GOES-17 Lat,Lon TERRA Lat,Lon Distance(km) Time Diff (sec)
1 02/08/2020 07:37:16 0.02,-137.22 0.15,-136.52 79.51 80
2 02/10/2020 07:25:07 0.02,-137.22 0.76,-133.57 414.11 80
3 02/10/2020 19:43:44 -0.02,-137.22 0.27,-138.74 172.05 80
4 02/12/2020 19:34:15 -0.02,-137.21 -0.34,-135.79 162.15 80
5 02/13/2020 07:53:00 0.03,-137.21 -0.77,-140.99 429.58 80
6 02/14/2020 19:22:06 -0.02,-137.20 -0.96,-132.84 495.76 80
7 02/15/2020 07:40:51 0.03,-137.19 -0.15,-138.04 96.15 80
8 02/17/2020 07:31:22 0.03,-137.17 0.48,-135.09 236.58 80
9 02/17/2020 19:49:57 -0.04,-137.17 0.62,-140.25 350.35 80
10 02/19/2020 19:37:48 -0.04,-137.14 -0.01,-137.31 18.28 80
11 02/21/2020 19:28:20 -0.04,-137.11 -0.64,-134.36 313.49 80




NCC Satellite Simultaneous Nadir Overpasses (SNOs) Prediction Service
